| time (UTC) | temp F | wind direction | speed MPH | gust MPH | rain 1hr in | rain 24hr in | rain mn in | humidity % | barometer mb |
| 20260510070205 | 76 | 242 | 1.0 | 6.0 | 0.00 | 0.00 | 0.00 | 90 | 1013.2 |
| 20260510064705 | 76 | 230 | 0.0 | 3.0 | 0.00 | 0.00 | 0.00 | 90 | 1013.2 |
| 20260510064203 | 77 | 226 | 0.0 | 3.0 | 0.00 | 0.00 | 0.00 | 91 | 1013.2 |
| 20260510063205 | 77 | 234 | 2.0 | 3.0 | 0.00 | 0.00 | 0.00 | 92 | 1013.2 |
| 20260510061703 | 77 | 231 | 0.0 | 0.0 | 0.00 | 0.00 | 0.00 | 93 | 1013.2 |
| 20260510061204 | 78 | 230 | 0.0 | 0.0 | 0.00 | 0.00 | 0.00 | 93 | 1013.9 |
| 20260510060705 | 78 | 76 | 0.0 | 0.0 | 0.00 | 0.00 | 0.00 | 93 | 1014.2 |
| 20260510060203 | 78 | 76 | 0.0 | 0.0 | 0.00 | 0.00 | 0.00 | 93 | 1014.2 |
| 20260510054704 | 78 | 76 | 0.0 | 0.0 | 0.00 | 0.00 | 0.00 | 93 | 1014.2 |
| 20260510054204 | 78 | 76 | 0.0 | 0.0 | 0.00 | 0.00 | 0.00 | 93 | 1014.2 |
| 20260510053704 | 78 | 76 | 0.0 | 0.0 | 0.00 | 0.00 | 0.00 | 93 | 1014.2 |
| 20260510053205 | 78 | 76 | 0.0 | 0.0 | 0.00 | 0.00 | 0.00 | 93 | 1014.2 |
| 20260510051704 | 78 | 76 | 0.0 | 0.0 | 0.00 | 0.00 | 0.00 | 93 | 1014.2 |
| 20260510051205 | 78 | 76 | 0.0 | 0.0 | 0.00 | 0.00 | 0.00 | 93 | 1014.2 |
| 20260510050205 | 78 | 76 | 0.0 | 0.0 | 0.00 | 0.00 | 0.00 | 93 | 1014.2 |
| 20260510044704 | 79 | 76 | 0.0 | 0.0 | 0.00 | 0.00 | 0.00 | 93 | 1014.2 |
| 20260510044206 | 79 | 76 | 0.0 | 0.0 | 0.00 | 0.00 | 0.00 | 93 | 1014.2 |
| 20260510043704 | 79 | 76 | 0.0 | 0.0 | 0.00 | 0.00 | 0.00 | 93 | 1014.2 |
| 20260510043205 | 79 | 76 | 0.0 | 0.0 | 0.00 | 0.00 | 0.00 | 94 | 1014.2 |
| 20260510041704 | 78 | 76 | 0.0 | 0.0 | 0.00 | 0.00 | 0.00 | 94 | 1014.2 |
| 20260510041205 | 78 | 72 | 0.0 | 0.0 | 0.00 | 0.00 | 0.00 | 94 | 1014.2 |
| 20260510040705 | 78 | 47 | 0.0 | 0.0 | 0.00 | 0.00 | 0.00 | 93 | 1014.2 |
| 20260510040205 | 79 | 46 | 0.0 | 3.0 | 0.00 | 0.00 | 0.00 | 92 | 1014.2 |
| 20260510034704 | 80 | 357 | 4.0 | 8.0 | 0.00 | 0.00 | 0.00 | 90 | 1014.2 |
| 20260510034205 | 80 | 0 | 2.0 | 6.0 | 0.00 | 0.00 | 0.00 | 88 | 1014.2 |
| 20260510033704 | 80 | 144 | 0.0 | 0.0 | 0.00 | 0.00 | 0.00 | 87 | 1014.2 |
| 20260510033204 | 80 | 144 | 0.0 | 3.0 | 0.00 | 0.00 | 0.00 | 87 | 1014.2 |
| 20260510031704 | 80 | 141 | 3.0 | 3.0 | 0.00 | 0.00 | 0.00 | 84 | 1014.2 |
| 20260510031204 | 80 | 152 | 0.0 | 0.0 | 0.00 | 0.00 | 0.00 | 83 | 1014.2 |
| 20260510030704 | 80 | 56 | 0.0 | 0.0 | 0.00 | 0.00 | 0.00 | 83 | 1014.2 |
| 20260510030204 | 81 | 38 | 0.0 | 8.0 | 0.00 | 0.00 | 0.00 | 81 | 1014.2 |
| 20260510024204 | 83 | 334 | 5.0 | 9.0 | 0.00 | 0.00 | 0.00 | 73 | 1013.6 |
| 20260510021203 | 83 | 200 | 5.0 | 8.0 | 0.00 | 0.00 | 0.00 | 73 | 1012.5 |
| 20260510020205 | 83 | 201 | 4.0 | 9.0 | 0.00 | 0.00 | 0.00 | 72 | 1012.2 |
| 20260510014704 | 83 | 199 | 7.0 | 9.0 | 0.00 | 0.00 | 0.00 | 72 | 1012.2 |
| 20260510014204 | 83 | 207 | 6.0 | 8.0 | 0.00 | 0.00 | 0.00 | 71 | 1012.2 |
| 20260510013704 | 83 | 179 | 6.0 | 9.0 | 0.00 | 0.00 | 0.00 | 71 | 1012.2 |
| 20260510013203 | 84 | 189 | 5.0 | 10.0 | 0.00 | 0.00 | 0.00 | 71 | 1012.2 |
| 20260510011204 | 84 | 167 | 6.0 | 9.0 | 0.00 | 0.00 | 0.00 | 70 | 1012.2 |
| 20260510010705 | 84 | 186 | 7.0 | 10.0 | 0.00 | 0.00 | 0.00 | 70 | 1012.2 |
| 20260510010204 | 84 | 194 | 7.0 | 9.0 | 0.00 | 0.00 | 0.00 | 70 | 1012.2 |
| 20260510004204 | 85 | 195 | 6.0 | 8.0 | 0.00 | 0.00 | 0.00 | 69 | 1011.5 |
| 20260510003704 | 85 | 178 | 6.0 | 9.0 | 0.00 | 0.00 | 0.00 | 68 | 1011.2 |
| 20260510003204 | 85 | 160 | 6.0 | 9.0 | 0.00 | 0.00 | 0.00 | 68 | 1011.2 |
| 20260510001704 | 85 | 192 | 7.0 | 8.0 | 0.00 | 0.00 | 0.00 | 68 | 1011.2 |
| 20260510001204 | 85 | 168 | 5.0 | 9.0 | 0.00 | 0.00 | 0.00 | 68 | 1011.2 |
| 20260510000704 | 86 | 160 | 5.0 | 7.0 | 0.00 | 0.00 | 0.00 | 68 | 1011.2 |
| 20260510000204 | 86 | 171 | 5.0 | 12.0 | 0.00 | 0.00 | 0.00 | 68 | 1011.2 |
| 20260509234205 | 86 | 165 | 7.0 | 12.0 | 0.00 | 0.00 | 0.00 | 69 | 1011.2 |
| 20260509233703 | 86 | 158 | 5.0 | 8.0 | 0.00 | 0.00 | 0.00 | 70 | 1011.2 |
| 20260509231704 | 87 | 149 | 4.0 | 8.0 | 0.00 | 0.00 | 0.00 | 70 | 1011.2 |
| 20260509231203 | 87 | 163 | 5.0 | 6.0 | 0.00 | 0.00 | 0.00 | 70 | 1011.2 |
| 20260509230704 | 87 | 178 | 5.0 | 6.0 | 0.00 | 0.00 | 0.00 | 70 | 1011.2 |
| 20260509224704 | 88 | 161 | 3.0 | 6.0 | 0.00 | 0.00 | 0.00 | 71 | 1010.2 |
| 20260509224205 | 88 | 147 | 5.0 | 8.0 | 0.00 | 0.00 | 0.00 | 70 | 1010.2 |
| 20260509223705 | 88 | 167 | 5.0 | 10.0 | 0.00 | 0.00 | 0.00 | 71 | 1010.2 |
| 20260509223204 | 88 | 125 | 5.0 | 8.0 | 0.00 | 0.00 | 0.00 | 71 | 1010.2 |
| 20260509221704 | 88 | 137 | 6.0 | 9.0 | 0.00 | 0.00 | 0.00 | 71 | 1010.2 |
| 20260509221204 | 88 | 146 | 6.0 | 10.0 | 0.00 | 0.00 | 0.00 | 71 | 1010.2 |
| 20260509220704 | 88 | 87 | 5.0 | 9.0 | 0.00 | 0.00 | 0.00 | 70 | 1010.2 |
| 20260509214704 | 89 | 114 | 7.0 | 9.0 | 0.00 | 0.00 | 0.00 | 69 | 1010.2 |
| 20260509214204 | 89 | 101 | 5.0 | 8.0 | 0.00 | 0.00 | 0.00 | 68 | 1010.2 |
| 20260509213204 | 90 | 118 | 6.0 | 9.0 | 0.00 | 0.00 | 0.00 | 66 | 1010.2 |
| 20260509211704 | 91 | 116 | 4.0 | 6.0 | 0.00 | 0.00 | 0.00 | 66 | 1010.2 |
| 20260509211204 | 91 | 112 | 2.0 | 9.0 | 0.00 | 0.00 | 0.00 | 65 | 1010.2 |
| 20260509210704 | 91 | 136 | 5.0 | 8.0 | 0.00 | 0.00 | 0.00 | 66 | 1010.2 |
| 20260509210203 | 91 | 122 | 5.0 | 8.0 | 0.00 | 0.00 | 0.00 | 66 | 1010.2 |
| 20260509204703 | 91 | 125 | 6.0 | 13.0 | 0.00 | 0.00 | 0.00 | 65 | 1010.2 |
| 20260509204203 | 92 | 162 | 5.0 | 8.0 | 0.00 | 0.00 | 0.00 | 63 | 1010.9 |
| 20260509203704 | 92 | 126 | 4.0 | 6.0 | 0.00 | 0.00 | 0.00 | 61 | 1011.2 |
| 20260509203204 | 93 | 122 | 3.0 | 12.0 | 0.00 | 0.00 | 0.00 | 57 | 1011.2 |
| 20260509201703 | 95 | 242 | 7.0 | 10.0 | 0.00 | 0.00 | 0.00 | 50 | 1010.2 |
| 20260509201205 | 96 | 234 | 9.0 | 12.0 | 0.00 | 0.00 | 0.00 | 50 | 1010.5 |
| 20260509200703 | 95 | 258 | 5.0 | 13.0 | 0.00 | 0.00 | 0.00 | 50 | 1011.2 |
| 20260509200203 | 95 | 232 | 7.0 | 15.0 | 0.00 | 0.00 | 0.00 | 50 | 1011.2 |
| 20260509194703 | 95 | 231 | 9.0 | 13.0 | 0.00 | 0.00 | 0.00 | 50 | 1011.2 |
| 20260509194204 | 95 | 182 | 5.0 | 8.0 | 0.00 | 0.00 | 0.00 | 50 | 1011.2 |
| 20260509193704 | 94 | 212 | 10.0 | 13.0 | 0.00 | 0.00 | 0.00 | 50 | 1011.2 |
| 20260509193204 | 94 | 178 | 6.0 | 14.0 | 0.00 | 0.00 | 0.00 | 50 | 1011.2 |
| 20260509191704 | 95 | 183 | 8.0 | 13.0 | 0.00 | 0.00 | 0.00 | 50 | 1011.2 |
| 20260509191204 | 95 | 182 | 6.0 | 9.0 | 0.00 | 0.00 | 0.00 | 50 | 1011.2 |
| 20260509190704 | 95 | 250 | 6.0 | 15.0 | 0.00 | 0.00 | 0.00 | 50 | 1011.2 |
| 20260509190204 | 95 | 236 | 7.0 | 13.0 | 0.00 | 0.00 | 0.00 | 50 | 1011.2 |
| 20260509184204 | 94 | 191 | 7.0 | 13.0 | 0.00 | 0.00 | 0.00 | 50 | 1011.6 |
| 20260509183704 | 94 | 216 | 10.0 | 13.0 | 0.00 | 0.00 | 0.00 | 51 | 1012.2 |
| 20260509181705 | 94 | 208 | 7.0 | 13.0 | 0.00 | 0.00 | 0.00 | 51 | 1012.2 |
| 20260509181203 | 94 | 200 | 6.0 | 13.0 | 0.00 | 0.00 | 0.00 | 50 | 1012.2 |
| 20260509180704 | 94 | 179 | 6.0 | 9.0 | 0.00 | 0.00 | 0.00 | 50 | 1012.2 |
| 20260509174704 | 94 | 228 | 7.0 | 10.0 | 0.00 | 0.00 | 0.00 | 51 | 1012.2 |
| 20260509174205 | 93 | 243 | 6.0 | 10.0 | 0.00 | 0.00 | 0.00 | 51 | 1012.2 |
| 20260509173705 | 94 | 183 | 4.0 | 8.0 | 0.00 | 0.00 | 0.00 | 51 | 1012.2 |
| 20260509173203 | 93 | 204 | 5.0 | 12.0 | 0.00 | 0.00 | 0.00 | 51 | 1012.2 |
| 20260509171704 | 93 | 174 | 7.0 | 14.0 | 0.00 | 0.00 | 0.00 | 51 | 1012.2 |
| 20260509171204 | 93 | 224 | 8.0 | 10.0 | 0.00 | 0.00 | 0.00 | 51 | 1012.2 |
| 20260509170705 | 93 | 193 | 9.0 | 13.0 | 0.00 | 0.00 | 0.00 | 51 | 1012.2 |
| 20260509164705 | 93 | 194 | 9.0 | 12.0 | 0.00 | 0.00 | 0.00 | 51 | 1013.2 |
| 20260509164204 | 93 | 219 | 7.0 | 12.0 | 0.00 | 0.00 | 0.00 | 54 | 1013.2 |
| 20260509163205 | 93 | 193 | 7.0 | 12.0 | 0.00 | 0.00 | 0.00 | 52 | 1013.2 |
| 20260509161703 | 93 | 203 | 9.0 | 13.0 | 0.00 | 0.00 | 0.00 | 52 | 1013.2 |
| 20260509161205 | 93 | 247 | 4.0 | 8.0 | 0.00 | 0.00 | 0.00 | 51 | 1013.2 |
| 20260509154203 | 97 | 224 | 7.0 | 10.0 | 0.00 | 0.00 | 0.00 | 50 | 1014.2 |
| 20260509153703 | 96 | 215 | 5.0 | 9.0 | 0.00 | 0.00 | 0.00 | 51 | 1014.2 |
| 20260509153204 | 96 | 152 | 2.0 | 12.0 | 0.00 | 0.00 | 0.00 | 51 | 1014.2 |
| 20260509151704 | 95 | 190 | 6.0 | 9.0 | 0.00 | 0.00 | 0.00 | 51 | 1014.2 |
| 20260509151203 | 95 | 241 | 7.0 | 12.0 | 0.00 | 0.00 | 0.00 | 51 | 1014.2 |
| 20260509150704 | 94 | 213 | 7.0 | 12.0 | 0.00 | 0.00 | 0.00 | 51 | 1014.2 |
| 20260509150204 | 94 | 222 | 8.0 | 12.0 | 0.00 | 0.00 | 0.00 | 51 | 1014.2 |
| 20260509144204 | 93 | 264 | 8.0 | 13.0 | 0.00 | 0.00 | 0.00 | 53 | 1014.2 |
| 20260509143205 | 92 | 233 | 7.0 | 10.0 | 0.00 | 0.00 | 0.00 | 60 | 1014.2 |
| 20260509141704 | 90 | 255 | 6.0 | 9.0 | 0.00 | 0.00 | 0.00 | 62 | 1014.2 |
| 20260509140704 | 89 | 251 | 6.0 | 8.0 | 0.00 | 0.00 | 0.00 | 65 | 1014.2 |
| 20260509140205 | 89 | 235 | 7.0 | 9.0 | 0.00 | 0.00 | 0.00 | 65 | 1014.2 |
| 20260509134704 | 88 | 250 | 5.0 | 8.0 | 0.00 | 0.00 | 0.00 | 69 | 1014.2 |
| 20260509134204 | 88 | 228 | 7.0 | 9.0 | 0.00 | 0.00 | 0.00 | 69 | 1014.2 |
| 20260509133704 | 88 | 233 | 6.0 | 9.0 | 0.00 | 0.00 | 0.00 | 68 | 1014.2 |
| 20260509133204 | 88 | 227 | 8.0 | 10.0 | 0.00 | 0.00 | 0.00 | 68 | 1014.2 |
| 20260509131704 | 89 | 244 | 5.0 | 9.0 | 0.00 | 0.00 | 0.00 | 65 | 1013.2 |
| 20260509131204 | 88 | 216 | 7.0 | 9.0 | 0.00 | 0.00 | 0.00 | 66 | 1013.2 |
| 20260509130704 | 88 | 255 | 6.0 | 8.0 | 0.00 | 0.00 | 0.00 | 69 | 1013.2 |
| 20260509124705 | 89 | 278 | 5.0 | 8.0 | 0.00 | 0.00 | 0.00 | 65 | 1013.2 |
| 20260509124205 | 91 | 253 | 4.0 | 6.0 | 0.00 | 0.00 | 0.00 | 66 | 1013.2 |
| 20260509123704 | 90 | 217 | 4.0 | 6.0 | 0.00 | 0.00 | 0.00 | 70 | 1013.2 |
| 20260509123204 | 87 | 205 | 3.0 | 8.0 | 0.00 | 0.00 | 0.00 | 79 | 1013.2 |
| 20260509121705 | 81 | 238 | 3.0 | 6.0 | 0.00 | 0.00 | 0.00 | 100 | 1013.2 |
| 20260509120704 | 80 | 229 | 2.0 | 3.0 | 0.00 | 0.00 | 0.00 | 100 | 1013.2 |
| 20260509120204 | 80 | 226 | 3.0 | 6.0 | 0.00 | 0.00 | 0.00 | 100 | 1013.2 |
| 20260509114704 | 79 | 204 | 2.0 | 6.0 | 0.00 | 0.00 | 0.00 | 100 | 1013.2 |
| 20260509114204 | 78 | 227 | 1.0 | 3.0 | 0.00 | 0.00 | 0.00 | 100 | 1013.2 |
| 20260509111705 | 78 | 200 | 0.0 | 0.0 | 0.00 | 0.00 | 0.00 | 100 | 1013.2 |
| 20260509111204 | 77 | 199 | 1.0 | 6.0 | 0.00 | 0.00 | 0.00 | 100 | 1013.2 |
| 20260509110704 | 76 | 204 | 2.0 | 6.0 | 0.00 | 0.00 | 0.00 | 100 | 1013.2 |
| 20260509110205 | 75 | 197 | 4.0 | 6.0 | 0.00 | 0.00 | 0.00 | 100 | 1013.2 |
| 20260509104704 | 73 | 202 | 3.0 | 6.0 | 0.00 | 0.00 | 0.00 | 100 | 1013.2 |
| 20260509103704 | 72 | 198 | 4.0 | 6.0 | 0.00 | 0.00 | 0.00 | 100 | 1013.2 |
| 20260509103204 | 72 | 190 | 3.0 | 6.0 | 0.00 | 0.00 | 0.00 | 100 | 1013.2 |
| 20260509101704 | 72 | 193 | 1.0 | 3.0 | 0.00 | 0.00 | 0.00 | 100 | 1013.2 |
| 20260509101205 | 72 | 191 | 1.0 | 3.0 | 0.00 | 0.00 | 0.00 | 100 | 1013.2 |
| 20260509100704 | 72 | 201 | 1.0 | 3.0 | 0.00 | 0.00 | 0.00 | 100 | 1013.2 |
| 20260509100204 | 72 | 188 | 0.0 | 0.0 | 0.00 | 0.00 | 0.00 | 100 | 1013.2 |
| 20260509094704 | 72 | 190 | 0.0 | 0.0 | 0.00 | 0.00 | 0.00 | 100 | 1013.2 |
| 20260509094204 | 72 | 190 | 0.0 | 0.0 | 0.00 | 0.00 | 0.00 | 100 | 1013.2 |
| 20260509093703 | 72 | 191 | 0.0 | 0.0 | 0.00 | 0.00 | 0.00 | 100 | 1013.2 |
| 20260509093204 | 72 | 191 | 0.0 | 0.0 | 0.00 | 0.00 | 0.00 | 100 | 1013.2 |
| 20260509091704 | 72 | 190 | 0.0 | 0.0 | 0.00 | 0.00 | 0.00 | 100 | 1013.2 |
| 20260509091205 | 72 | 190 | 0.0 | 0.0 | 0.00 | 0.00 | 0.00 | 100 | 1013.2 |
| 20260509090205 | 73 | 183 | 0.0 | 3.0 | 0.00 | 0.00 | 0.00 | 100 | 1013.2 |
| 20260509084706 | 73 | 236 | 0.0 | 3.0 | 0.00 | 0.00 | 0.00 | 100 | 1013.2 |
| 20260509084203 | 73 | 221 | 2.0 | 3.0 | 0.00 | 0.00 | 0.00 | 100 | 1013.2 |
| 20260509083705 | 73 | 214 | 2.0 | 3.0 | 0.00 | 0.00 | 0.00 | 100 | 1013.2 |
| 20260509083204 | 73 | 229 | 3.0 | 5.0 | 0.00 | 0.00 | 0.00 | 100 | 1013.2 |
| 20260509081205 | 73 | 224 | 2.0 | 3.0 | 0.00 | 0.00 | 0.00 | 100 | 1013.2 |
| 20260509080704 | 73 | 223 | 2.0 | 3.0 | 0.00 | 0.00 | 0.00 | 100 | 1013.2 |
| 20260509080205 | 73 | 205 | 2.0 | 6.0 | 0.00 | 0.00 | 0.00 | 100 | 1013.2 |
| 20260509074204 | 73 | 229 | 3.0 | 6.0 | 0.00 | 0.00 | 0.00 | 100 | 1013.2 |
| 20260509073704 | 73 | 217 | 3.0 | 6.0 | 0.00 | 0.00 | 0.00 | 100 | 1013.2 |
| 20260509071704 | 73 | 210 | 2.0 | 3.0 | 0.00 | 0.00 | 0.00 | 100 | 1013.2 |
| 20260509071204 | 73 | 222 | 3.0 | 5.0 | 0.00 | 0.00 | 0.00 | 100 | 1013.2 |
| 20260509070704 | 73 | 218 | 3.0 | 5.0 | 0.00 | 0.00 | 0.00 | 100 | 1013.2 |